Overview Statistics Trail Chart Weather Telemetry Raw packets
 

This is the latest recevied weather packets stored in our database for station/object EA5JMY-10. If no packets are shown the sender has not sent any weather packets the latest 10 day(s).

<< 25 26 27 28 29 30 31 >>
Time Temp. Humidity Pressure Rain* Wind** Luminosity Snow
1788028767 28.89° C 47% 1017.7 hPa - - - -
1788027866 28.89° C 44% 1017.6 hPa - - - -
1788026966 29.44° C 45% 1017.6 hPa - - - -
1788026066 29.44° C 48% 1017.6 hPa - - - -
1788025166 30° C 47% 1017.5 hPa - - - -
1788024266 30° C 48% 1017.6 hPa - - - -
1788023366 30.56° C 45% 1017.5 hPa - - - -
1788022466 30.56° C 42% 1017.7 hPa - - - -
1788021565 31.11° C 34% 1018 hPa - - - -
1788020666 31.11° C 33% 1018 hPa - - - -
1788019766 31.67° C 35% 1018.3 hPa - - - -
1788018866 31.11° C 38% 1018.5 hPa - - - -
1788017965 31.11° C 38% 1018.6 hPa - - - -
1788017065 31.11° C 38% 1018.8 hPa - - - -
1788016165 31.11° C 36% 1019 hPa - - - -
1788015264 31.67° C 34% 1019.2 hPa - - - -
1788014364 31.67° C 34% 1019.2 hPa - - - -
1788013464 31.11° C 32% 1019.3 hPa - - - -
1788012564 31.67° C 31% 1019.5 hPa - - - -
1788011664 31.11° C 35% 1019.7 hPa - - - -
1788010764 31.67° C 35% 1019.7 hPa - - - -
1788009863 31.67° C 27% 1019.8 hPa - - - -
1788008963 31.67° C 27% 1020 hPa - - - -
1788008063 32.22° C 26% 1020.1 hPa - - - -
1788007163 32.22° C 28% 1020.3 hPa - - - -

* Rain since midnight (hover to see other rain measurements)
** Current wind speed in m/s (hover to see current wind gust speed)